Wind_Speed
26 26 25 24 25 26 27 28 27 29 31 29 26 30 31 30 28 28 23 15 18 24 25 22 37 47 42 48 33 41 35 31 30 26 32 33 28 43 40 42 44 45 44
25 24 24 27 28 27 27 28 28 27 29 29 27 27 31 32 32 28 27 20 15 21 28 26 30 38 42 51 51 44 40 41 34 33 32 30 33 33 39 40 43 46 47
24 24 24 25 26 26 30 28 27 26 27 29 27 28 30 32 34 30 24 26 18 14 24 30 28 30 36 47 40 47 48 37 40 34 34 38 28 35 33 38 40 44 44
23 24 24 23 25 25 28 29 26 23 24 26 26 27 29 31 32 32 28 23 23 14 17 28 30 30 34 40 43 53 51 51 41 50 35 33 36 33 35 34 37 39 43
23 24 24 23 24 25 25 29 25 23 23 24 25 28 27 27 33 32 28 25 23 19 11 18 29 36 37 38 42 45 46 51 48 39 53 45 34 33 35 33 37 39 38
23 23 25 24 25 25 25 25 26 23 23 25 26 25 26 25 30 29 24 25 24 22 16 12 21 31 36 45 46 46 47 48 48 46 48 49 50 42 34 37 35 35 34
22 23 24 24 25 25 25 24 26 25 24 25 24 26 25 24 30 27 23 22 23 21 19 14 11 23 30 42 47 49 53 48 52 48 48 49 45 51 44 39 40 39 39
22 23 24 25 24 25 25 27 27 26 24 25 27 24 26 25 29 27 24 20 22 22 20 18 15 9 16 38 38 49 51 54 46 49 54 51 45 46 53 48 45 43 39
22 23 23 25 24 25 26 27 27 27 25 24 26 24 25 26 30 26 25 23 21 20 21 20 18 12 10 16 31 37 47 54 53 52 54 51 49 48 47 47 47 44 42
22 23 23 24 23 23 24 24 24 24 25 24 24 24 23 26 27 26 24 24 23 22 21 21 20 18 15 10 5 17 33 42 49 50 50 53 57 55 47 51 48 47 45
20 21 22 22 23 21 23 23 23 24 25 24 25 26 24 26 28 26 23 22 22 20 21 21 20 20 17 15 11 6 6 18 24 33 43 48 53 59 55 51 55 48 47
19 19 20 22 22 22 23 23 22 23 24 25 25 26 27 26 28 27 25 21 18 20 22 19 18 17 17 16 15 13 7 3 8 18 27 25 30 46 58 61 58 64 49
18 18 19 20 21 21 23 23 24 23 24 26 27 29 28 29 28 28 28 23 20 20 20 17 16 15 15 16 14 13 13 12 10 8 8 10 12 18 32 48 50 57 59
17 17 17 19 21 19 21 21 22 23 24 24 27 27 27 29 31 28 28 25 20 18 18 19 18 19 18 15 14 16 17 18 17 15 9 4 2 5 11 14 29 32 42
16 17 17 16 18 17 18 19 20 18 22 21 23 24 24 27 29 22 21 24 21 21 20 20 21 22 22 22 21 20 16 16 15 13 12 11 9 6 4 3 6 9 21
16 16 17 16 17 17 18 19 16 16 18 20 19 22 19 19 22 20 18 22 19 21 22 24 25 24 24 24 23 22 21 19 17 14 12 13 13 11 11 8 6 3 1
14 16 16 15 17 17 18 19 20 20 18 19 19 22 17 19 21 21 18 18 21 21 24 24 24 24 23 24 23 22 22 20 17 15 15 14 12 11 11 12 11 8 5
16 17 15 17 16 17 17 18 19 19 22 22 21 22 20 19 22 23 22 20 23 25 24 26 26 26 26 25 23 23 20 20 19 17 19 17 15 12 10 9 12 12 11
16 15 18 14 20 17 17 17 17 17 18 20 23 23 23 22 21 23 23 23 24 24 24 24 24 24 25 25 24 22 21 20 22 22 20 18 16 12 10 10 8 8 9
15 14 16 14 15 17 19 17 17 18 18 17 19 24 26 24 24 24 24 24 23 22 22 22 23 22 22 22 23 22 22 24 25 25 24 21 18 15 14 10 10 10 8
18 14 16 14 14 15 16 18 18 18 19 17 17 19 21 21 22 22 24 24 22 22 22 21 22 21 21 21 22 23 23 23 23 24 24 24 22 19 16 13 12 9 10
14 12 12 12 14 14 14 15 16 16 16 18 19 19 20 19 20 21 21 22 22 21 20 20 20 22 23 23 24 25 24 24 24 22 22 20 21 21 20 17 13 11 10
10 11 11 11 12 13 13 13 14 15 15 16 18 19 19 19 18 18 20 21 20 20 20 21 21 22 22 21 22 23 24 24 24 22 20 20 19 20 19 19 16 13 11
9 10 10 11 12 12 12 13 13 14 15 15 16 16 16 17 18 19 19 20 21 21 20 20 21 22 22 21 22 22 23 23 22 21 20 18 18 18 18 18 18 16 15
9 11 11 11 12 12 12 12 12 13 13 13 14 15 16 16 17 19 19 21 22 21 20 20 20 21 21 20 21 21 22 23 23 22 20 17 16 16 18 18 18 18 16
9 11 11 11 11 12 12 11 12 12 13 13 14 15 15 16 19 20 21 23 22 21 21 21 20 20 20 20 20 20 21 22 22 22 21 19 19 18 18 18 18 18 17
Wind_Direction
340 340 338 335 342 348 349 345 345 342 342 345 350 341 345 349 349 349 339 309 272 245 220 224 230 229 239 235 243 245 249 229 245 220 222 219 219 219 217 223 224 230 235
340 340 337 338 347 348 347 346 348 343 346 346 346 347 342 347 353 356 349 336 299 251 230 219 227 232 230 233 234 253 249 246 227 239 229 216 217 224 218 219 223 228 236
342 341 338 344 346 345 347 349 345 349 346 346 350 348 344 344 349 355 357 345 326 275 246 230 217 224 230 224 223 236 246 233 230 235 228 234 224 221 224 216 224 226 230
345 344 343 345 346 346 343 350 347 352 346 346 350 345 345 343 347 349 357 351 343 313 258 241 231 217 230 226 226 229 232 234 237 238 227 228 230 219 226 227 215 227 230
346 345 348 347 346 344 345 343 347 351 349 351 348 347 348 348 349 346 352 359 350 339 306 241 238 232 229 225 229 228 231 227 234 235 230 229 222 225 214 215 221 224 239
347 349 351 351 349 348 347 343 346 353 357 353 351 346 348 350 348 348 348 358 358 351 339 277 239 235 236 234 231 230 230 234 230 227 229 230 227 221 225 218 216 214 218
349 351 351 350 349 348 347 346 351 357 356 355 352 353 354 353 354 350 351 360 358 3 357 348 283 249 243 234 233 234 233 226 231 225 226 227 233 228 224 224 219 221 225
350 352 352 348 348 343 347 350 354 1 357 357 354 357 356 358 357 357 355 1 353 4 6 1 353 323 264 243 239 235 237 234 228 233 237 232 232 230 229 228 225 227 227
350 349 350 346 345 342 349 351 356 358 357 353 355 356 357 359 357 359 359 3 1 0 13 16 5 356 352 266 243 235 230 232 239 232 236 240 240 234 233 226 225 222 227
351 348 348 344 345 348 351 355 357 358 357 356 357 358 2 358 360 5 4 6 5 7 11 17 17 14 13 25 245 226 233 231 233 233 238 239 239 230 228 227 229 223 222
349 348 348 347 351 350 351 355 355 357 357 1 1 1 3 0 358 7 8 7 7 10 12 14 16 15 13 21 34 38 203 229 221 224 237 243 243 239 237 233 228 230 223
350 349 351 349 351 350 355 355 359 355 357 359 1 6 3 2 358 9 12 13 12 13 9 12 14 15 18 16 26 34 50 103 189 210 222 235 236 237 236 232 230 227 232
349 354 354 346 357 354 359 358 359 360 360 359 1 2 3 1 1 8 12 14 17 17 10 11 14 18 27 30 26 27 41 53 79 121 162 202 217 231 232 230 232 224 226
355 355 351 348 356 356 1 1 2 358 359 357 358 0 3 0 3 9 10 14 17 23 24 21 27 30 32 32 28 31 33 34 45 55 58 53 291 251 254 248 236 234 226
356 352 347 353 351 355 359 3 0 359 358 355 355 356 1 2 5 6 10 15 21 25 28 31 32 34 32 32 35 33 30 34 30 27 33 37 28 17 354 319 273 238 239
354 345 344 352 350 353 354 358 6 358 2 0 1 357 1 7 11 15 21 23 25 31 32 30 31 32 29 31 32 31 30 33 31 31 24 15 16 24 18 12 1 14 275
349 339 347 346 350 351 352 352 353 7 8 2 5 7 3 9 14 18 31 30 29 34 30 27 27 26 29 32 29 29 26 26 27 30 37 35 27 18 7 0 0 12 353
348 347 350 350 351 352 351 350 353 355 360 1 7 7 15 21 14 20 25 29 30 33 31 25 20 22 23 27 29 30 24 25 26 26 30 30 32 35 32 24 4 356 351
349 348 350 0 345 353 355 354 351 356 356 358 359 9 15 21 17 20 22 27 25 23 24 25 20 17 18 17 21 25 27 28 27 26 26 20 17 20 22 27 25 17 20
351 341 355 1 346 349 349 351 351 354 356 357 358 357 6 14 13 15 17 18 20 21 18 20 16 14 12 14 11 13 18 22 25 27 26 19 13 14 10 7 11 17 6
326 350 357 343 339 341 345 347 349 352 351 351 356 353 5 7 8 8 9 13 13 14 11 13 13 12 15 13 9 10 13 14 14 18 20 19 16 12 5 2 360 353 345
328 346 340 341 338 336 344 343 344 345 347 347 348 353 1 4 4 2 6 7 10 10 8 9 7 6 9 13 9 8 10 9 9 8 10 12 13 12 8 5 357 354 337
327 337 338 340 341 341 341 342 345 342 345 346 350 354 356 356 358 358 357 0 3 5 7 6 5 5 7 8 9 8 7 5 3 1 359 5 10 5 4 5 2 359 343
324 332 340 342 339 349 344 347 345 343 349 348 351 352 351 354 354 354 356 360 1 0 1 0 1 1 1 2 3 4 5 6 2 0 1 1 4 1 0 0 360 355 353
321 334 339 344 343 346 347 346 346 346 347 349 350 350 350 351 351 354 354 358 359 359 1 360 357 355 354 356 358 358 360 2 2 359 358 359 358 357 359 359 357 356 354
320 322 334 341 342 344 346 346 346 346 348 349 350 349 351 349 350 354 354 355 357 359 357 357 357 355 354 352 352 353 354 356 358 0 356 357 354 354 353 353 358 358 355
Height
1534 1528 1523 1516 1509 1504 1498 1491 1484 1478 1472 1467 1462 1457 1449 1442 1435 1429 1424 1421 1422 1424 1426 1427 1431 1436 1443 1450 1454 1462 1469 1473 1477 1483 1486 1490 1495 1501 1507 1511 1515 1517 1521
1533 1527 1521 1514 1508 1503 1497 1492 1485 1477 1471 1466 1461 1456 1449 1441 1435 1428 1423 1418 1417 1418 1421 1424 1429 1432 1438 1445 1451 1454 1456 1467 1474 1477 1481 1483 1488 1491 1497 1503 1506 1510 1512
1532 1527 1520 1515 1510 1504 1498 1492 1486 1479 1472 1466 1460 1455 1449 1441 1434 1429 1422 1418 1414 1413 1415 1418 1424 1428 1432 1437 1440 1450 1453 1456 1462 1472 1476 1480 1482 1484 1489 1496 1498 1503 1506
1531 1526 1519 1515 1510 1505 1498 1492 1486 1480 1474 1468 1462 1456 1449 1442 1433 1425 1419 1415 1411 1408 1409 1411 1414 1421 1427 1429 1434 1440 1446 1450 1456 1462 1466 1473 1478 1478 1481 1486 1492 1494 1498
1531 1525 1519 1514 1510 1505 1499 1493 1487 1481 1475 1469 1462 1456 1451 1444 1435 1427 1419 1414 1411 1406 1403 1404 1406 1409 1414 1416 1425 1431 1435 1439 1446 1450 1457 1463 1467 1473 1472 1478 1483 1486 1488
1530 1525 1520 1515 1509 1504 1499 1492 1485 1479 1474 1469 1463 1458 1452 1445 1438 1430 1422 1415 1410 1405 1399 1398 1396 1400 1404 1409 1415 1419 1426 1428 1432 1438 1446 1452 1458 1464 1468 1471 1475 1479 1483
1530 1525 1520 1515 1510 1504 1498 1491 1484 1479 1475 1470 1465 1459 1453 1447 1439 1433 1426 1419 1414 1408 1403 1396 1394 1393 1394 1398 1404 1409 1414 1419 1424 1432 1436 1441 1447 1454 1462 1462 1466 1470 1473
1530 1526 1521 1515 1509 1503 1496 1489 1484 1479 1474 1471 1466 1460 1455 1448 1441 1433 1427 1422 1417 1411 1403 1397 1392 1391 1389 1390 1394 1400 1405 1409 1415 1423 1427 1434 1441 1447 1451 1455 1457 1462 1467
1531 1526 1521 1515 1509 1502 1495 1490 1485 1480 1475 1472 1467 1461 1456 1450 1443 1435 1429 1424 1419 1412 1405 1399 1397 1393 1391 1385 1392 1393 1397 1401 1405 1410 1416 1421 1428 1438 1444 1448 1448 1452 1455
1531 1527 1522 1515 1508 1502 1497 1492 1487 1482 1477 1472 1467 1463 1457 1452 1446 1438 1431 1426 1420 1414 1408 1403 1399 1396 1392 1386 1387 1385 1388 1392 1395 1400 1407 1414 1421 1426 1430 1435 1440 1438 1444
1532 1527 1523 1516 1508 1503 1498 1494 1489 1484 1479 1473 1468 1463 1458 1453 1447 1440 1434 1427 1422 1419 1413 1408 1404 1399 1394 1391 1386 1385 1383 1386 1386 1390 1398 1403 1409 1413 1415 1419 1427 1429 1430
1532 1527 1523 1517 1510 1504 1499 1495 1490 1485 1479 1474 1469 1464 1458 1452 1446 1440 1434 1429 1424 1419 1415 1411 1407 1402 1397 1392 1389 1388 1385 1385 1382 1382 1388 1393 1394 1397 1402 1408 1411 1415 1419
1531 1528 1524 1517 1511 1506 1500 1496 1491 1486 1481 1475 1469 1464 1459 1453 1447 1441 1435 1429 1424 1419 1416 1412 1408 1405 1400 1394 1396 1391 1388 1386 1380 1380 1384 1387 1389 1392 1392 1394 1397 1399 1407
1530 1527 1523 1518 1511 1507 1503 1498 1494 1489 1483 1478 1472 1466 1462 1456 1448 1442 1437 1432 1429 1425 1421 1416 1410 1406 1400 1399 1397 1392 1388 1385 1383 1382 1385 1385 1386 1387 1386 1387 1387 1388 1393
1530 1527 1523 1518 1512 1508 1505 1501 1497 1493 1488 1482 1476 1471 1464 1459 1453 1449 1443 1437 1432 1429 1424 1420 1416 1410 1406 1401 1396 1393 1394 1391 1388 1387 1385 1384 1385 1384 1385 1385 1385 1383 1384
1529 1526 1521 1517 1512 1508 1505 1501 1499 1495 1491 1486 1480 1474 1468 1464 1458 1453 1448 1443 1439 1433 1428 1423 1419 1416 1413 1407 1404 1402 1399 1395 1393 1391 1390 1385 1387 1384 1385 1386 1386 1383 1384
1528 1524 1519 1516 1511 1508 1505 1501 1497 1494 1491 1487 1482 1477 1471 1466 1460 1456 1451 1447 1443 1437 1433 1430 1425 1423 1419 1413 1410 1406 1403 1401 1399 1398 1392 1390 1387 1385 1385 1388 1388 1384 1385
1523 1520 1517 1514 1511 1508 1505 1501 1498 1494 1489 1485 1482 1477 1473 1467 1463 1458 1452 1449 1444 1440 1436 1432 1428 1424 1418 1416 1413 1410 1411 1406 1404 1399 1390 1389 1387 1389 1390 1391 1389 1386 1387
1522 1520 1517 1515 1511 1507 1504 1501 1498 1494 1491 1487 1481 1477 1472 1468 1464 1459 1454 1450 1446 1442 1439 1436 1433 1428 1425 1422 1418 1415 1411 1410 1403 1395 1390 1391 1392 1391 1392 1389 1387 1386 1387
1522 1520 1517 1516 1514 1510 1506 1502 1498 1494 1491 1488 1484 1477 1471 1467 1462 1459 1456 1450 1447 1445 1441 1438 1435 1431 1430 1427 1423 1419 1415 1407 1401 1397 1395 1395 1394 1391 1391 1388 1386 1383 1387
1523 1520 1519 1518 1514 1511 1507 1503 1499 1495 1492 1488 1485 1481 1476 1471 1466 1462 1457 1454 1451 1447 1444 1441 1438 1435 1432 1428 1423 1418 1413 1408 1406 1401 1398 1396 1396 1393 1390 1386 1384 1383 1385
1523 1520 1518 1516 1513 1510 1506 1503 1500 1497 1493 1488 1484 1480 1477 1474 1470 1465 1461 1457 1453 1450 1447 1443 1440 1436 1432 1427 1423 1418 1415 1411 1406 1405 1403 1399 1396 1393 1391 1387 1385 1382 1384
1523 1519 1517 1515 1511 1508 1506 1502 1499 1496 1492 1489 1485 1481 1477 1474 1471 1468 1463 1458 1456 1452 1448 1444 1440 1437 1433 1430 1427 1422 1417 1412 1409 1407 1403 1400 1396 1396 1394 1391 1388 1383 1383
1522 1518 1516 1513 1510 1507 1505 1502 1499 1496 1492 1489 1486 1482 1479 1475 1471 1466 1463 1459 1455 1450 1447 1443 1440 1435 1432 1429 1427 1423 1419 1414 1410 1407 1402 1398 1397 1398 1394 1391 1387 1383 1380
1520 1517 1515 1513 1509 1506 1503 1501 1499 1496 1492 1488 1485 1482 1478 1475 1471 1466 1462 1458 1454 1451 1448 1444 1440 1437 1434 1430 1427 1423 1418 1413 1409 1407 1404 1401 1398 1396 1392 1389 1387 1383 1379
1519 1516 1514 1511 1509 1506 1502 1499 1497 1494 1491 1488 1485 1481 1477 1474 1470 1466 1462 1458 1453 1450 1446 1443 1440 1437 1433 1430 1426 1421 1417 1414 1411 1407 1405 1400 1398 1394 1390 1388 1385 1383 1379